Change the Weather History Date:

Monday, May 20, 2013

  Actual Average Record
Temperature  
Mean Temperature 64 °F -  
Max Temperature 79 °F 74 °F 102 °F (1956)
Min Temperature 51 °F 54 °F 35 °F (1968)
Growing Degree Days 14 (Base 50)    
Moisture  
Dew Point 48 °F    
Average Humidity 60    
Maximum Humidity 89    
Minimum Humidity 30    
Precipitation  
Precipitation 0.00 in - - ()
Sea Level Pressure  
Sea Level Pressure 29.71 in    
Wind  
Wind Speed 10 mph (West)    
Max Wind Speed 22 mph    
Max Gust Speed 34 mph    
Visibility 10 miles    
Events      
Averages and records for this station are not official NWS values.
T = Trace of Precipitation, MM = Missing Value Source: NWS Daily Summary

Daily Weather History Graph

Daily Weather History Graph

Search for Another Location

Airport or City:

Trip Planner

Search our weather history database for the weather conditions in past years. The results will help you decide how hot, cold, wet, or windy it might be!

Date:

Astronomy

May. 20, 2013 Rise Set
Actual Time 6:18 AM CDT 8:45 PM CDT
Civil Twilight 5:48 AM CDT 9:16 PM CDT
Nautical Twilight 5:10 AM CDT 9:53 PM CDT
Astronomical Twilight 4:28 AM CDT 10:35 PM CDT
Moon 3:57 PM CDT (5/20) 3:11 AM CDT (5/20)
Length of Visible Light 15h 28m
Length of Day
14h 27m
Waxing Gibbous, 75% of the Moon is Illuminated
May 20
Waxing Gibbous
May 24
Full
May 31
Last Quarter
Jun 8
New
Jun 16
First Quarter

Hourly Weather History & Observations

Time (CDT) Temp. Dew Point Humidity Pressure Visibility Wind Dir Wind Speed Gust Speed Precip Events Conditions
12:53 AM 55.9 °F 51.1 °F 84% 29.64 in 10.0 mi West 6.9 mph - N/A   Clear
1:53 AM 55.9 °F 50.0 °F 80% 29.64 in 10.0 mi WSW 8.1 mph - N/A   Clear
2:53 AM 55.4 °F 48.2 °F 77% 29.68 in 10.0 mi West 9.2 mph - N/A   Clear
3:53 AM 54.0 °F 48.9 °F 83% 29.63 in 10.0 mi West 10.4 mph - N/A   Clear
4:53 AM 51.1 °F 48.0 °F 89% 29.66 in 10.0 mi WSW 6.9 mph - N/A   Clear
5:53 AM 52.0 °F 48.0 °F 86% 29.70 in 10.0 mi SW 3.5 mph - N/A   Clear
6:53 AM 51.1 °F 48.0 °F 89% 29.74 in 10.0 mi SSW 8.1 mph - N/A   Clear
7:53 AM 57.0 °F 52.0 °F 83% 29.73 in 10.0 mi West 5.8 mph - N/A   Clear
8:53 AM 62.6 °F 53.6 °F 72% 29.76 in 10.0 mi West 5.8 mph - N/A   Clear
9:53 AM 64.9 °F 54.0 °F 68% 29.75 in 10.0 mi West 11.5 mph - N/A   Clear
10:53 AM 68.0 °F 54.0 °F 61% 29.74 in 10.0 mi SW 12.7 mph - N/A   Clear
11:53 AM 71.1 °F 53.1 °F 53% 29.72 in 10.0 mi West 11.5 mph - N/A   Partly Cloudy
12:53 PM 73.4 °F 51.8 °F 47% 29.74 in 10.0 mi West 12.7 mph - N/A   Scattered Clouds
1:53 PM 72.0 °F 48.9 °F 44% 29.72 in 10.0 mi West 13.8 mph - N/A   Mostly Cloudy
2:53 PM 75.0 °F 48.9 °F 40% 29.69 in 10.0 mi WSW 13.8 mph 23.0 mph N/A   Mostly Cloudy
3:53 PM 78.1 °F 46.0 °F 32% 29.68 in 10.0 mi WNW 16.1 mph 23.0 mph N/A   Scattered Clouds
4:53 PM 77.0 °F 44.1 °F 31% 29.67 in 10.0 mi West 17.3 mph 29.9 mph N/A   Scattered Clouds
5:53 PM 78.1 °F 44.1 °F 30% 29.67 in 10.0 mi West 20.7 mph 27.6 mph N/A   Partly Cloudy
6:53 PM 75.9 °F 44.1 °F 32% 29.66 in 10.0 mi West 20.7 mph 31.1 mph N/A   Clear
7:53 PM 72.0 °F 41.0 °F 33% 29.68 in 10.0 mi WNW 21.9 mph 34.5 mph N/A   Clear
8:53 PM 66.2 °F 42.8 °F 43% 29.74 in 10.0 mi WNW 18.4 mph - N/A   Clear
9:53 PM 62.1 °F 44.1 °F 52% 29.75 in 10.0 mi WNW 16.1 mph - N/A   Clear
10:53 PM 59.0 °F 45.0 °F 60% 29.78 in 10.0 mi WNW 12.7 mph - N/A   Clear
11:53 PM 55.9 °F 46.0 °F 69% 29.78 in 10.0 mi West 9.2 mph - N/A   Clear